Weather History for Amritsar, India

Change the Weather History Date:

Tuesday, January 21, 2014

  Actual Average Record
Temperature  
Mean Temperature 53 °F -  
Max Temperature 66 °F 60 °F - (-1)
Min Temperature 40 °F 39 °F - (-1)
Degree Days  
Heating Degree Days 12    
Growing Degree Days 3 (Base 50)    
Moisture  
Dew Point 51 °F    
Average Humidity 86    
Maximum Humidity 100    
Minimum Humidity 55    
Precipitation  
Precipitation 0.00 in - - ()
Sea Level Pressure  
Sea Level Pressure 30.14 in    
Wind  
Wind Speed 1 mph ()    
Max Wind Speed 8 mph    
Max Gust Speed -    
Visibility 1.2 miles    
Events Fog , Rain    
Averages and records for this station are not official NWS values.
T = Trace of Precipitation, MM = Missing Value Source: Averaged Metar Reports

Daily Weather History Graph

Daily Weather History Graph

Search for Another Location

Airport:

Trip Planner

Search our weather history database for the weather conditions in past years. The results will help you decide how hot, cold, wet, or windy it might be!

Date:

Astronomy

Jan. 21, 2014 Rise Set
Actual Time 7:29 AM IST 5:54 PM IST
Civil Twilight 7:03 AM IST 6:20 PM IST
Nautical Twilight 6:33 AM IST 6:50 PM IST
Astronomical Twilight 6:04 AM IST 7:19 PM IST
Moon 10:39 PM IST (1/21) 10:05 AM IST (1/21)
Length of Visible Light 11h 17m
Length of Day
10h 25m
Waning Gibbous, 78% of the Moon is Illuminated
Jan 21
Waning Gibbous
Jan 24
Last Quarter
Jan 31
New
Feb 7
First Quarter
Feb 15
Full

Hourly Weather History & Observations

Time (IST) Temp. Dew Point Humidity Pressure Visibility Wind Dir Wind Speed Gust Speed Precip Events Conditions
12:00 AM 50.0 °F 50.0 °F 100% 30.15 in 0.6 mi Calm Calm - N/A   Scattered Clouds
12:30 AM 51.8 °F 50.0 °F 94% 30.15 in 0.6 mi Calm Calm - N/A Fog Shallow Fog
1:00 AM 51.8 °F 50.0 °F 94% 30.15 in 0.6 mi Calm Calm - N/A Fog Shallow Fog
1:30 AM 50.0 °F 50.0 °F 100% 30.15 in 0.6 mi Variable 2.3 mph - N/A Fog Shallow Fog
2:00 AM 50.0 °F 50.0 °F 100% 30.15 in 0.6 mi Calm Calm - N/A Fog Shallow Fog
2:30 AM 50 °F 49 °F 93% 30.17 in 0 mi Calm Calm - - Fog Patches of Fog
2:30 AM 50.0 °F 48.2 °F 94% 30.15 in 0.6 mi Calm Calm - N/A Fog Shallow Fog
3:00 AM 50.0 °F 50.0 °F 100% 30.15 in 0.6 mi Calm Calm - N/A Fog Shallow Fog
3:30 AM 50.0 °F 50.0 °F 100% 30.15 in 0.6 mi ENE 5.8 mph - N/A Fog Shallow Fog
4:30 AM 48.2 °F 48.2 °F 100% 30.12 in 0.5 mi Calm Calm - N/A Fog Fog
5:00 AM 48.2 °F 48.2 °F 100% 30.15 in 0.5 mi Calm Calm - N/A Fog Fog
5:30 AM 52 °F 52 °F 99% 30.16 in 0 mi Calm Calm - - Fog Partial Fog
5:30 AM 50.0 °F 50.0 °F 100% 30.15 in 0.5 mi Calm Calm - N/A Fog Fog
6:00 AM 51.8 °F 50.0 °F 94% 30.15 in 0.5 mi Calm Calm - N/A Fog Fog
6:30 AM 51.8 °F 50.0 °F 94% 30.15 in 0.5 mi Variable 1.2 mph - N/A Fog Fog
7:00 AM 51.8 °F 50.0 °F 94% 30.18 in 0.6 mi Variable 1.2 mph - N/A   Scattered Clouds
7:30 AM 51.8 °F 50.0 °F 94% 30.18 in 0.6 mi Calm Calm - N/A   Mostly Cloudy
8:00 AM 51.8 °F 50.0 °F 94% 30.15 in 0.6 mi Variable 2.3 mph - N/A   Mostly Cloudy
8:30 AM 51 °F 50 °F 97% 30.18 in 0 mi 2.3 mph - - Fog Partial Fog
8:30 AM 51.8 °F 50.0 °F 94% 30.15 in 0.4 mi Variable 2.3 mph - N/A Fog Fog
9:00 AM 53.6 °F 51.8 °F 94% 30.18 in 0.6 mi ENE 5.8 mph - N/A   Scattered Clouds
9:30 AM 55.4 °F 51.8 °F 88% 30.18 in 0.9 mi Calm Calm - N/A   Scattered Clouds
10:00 AM 57.2 °F 51.8 °F 82% 30.18 in 0.9 mi ENE 3.5 mph - N/A   Scattered Clouds
11:00 AM 62.6 °F 51.8 °F 68% 30.18 in 2.2 mi Calm Calm - N/A   Haze
11:30 AM 64 °F 53 °F 57% 30.17 in 1 mi Calm Calm - -   Haze
11:30 AM 64.4 °F 51.8 °F 64% 30.18 in 2.5 mi Calm Calm - N/A   Haze
12:00 PM 64.4 °F 50.0 °F 59% 30.15 in 2.2 mi Variable 1.2 mph - N/A   Haze
12:30 PM 66.2 °F 50.0 °F 56% 30.15 in 2.5 mi SE 4.6 mph - N/A   Haze
1:00 PM 64.4 °F 50.0 °F 59% 30.15 in 2.2 mi SE 5.8 mph - N/A   Haze
1:30 PM 64.4 °F 50.0 °F 59% 30.15 in 2.2 mi SE 8.1 mph - N/A   Haze
2:00 PM 64.4 °F 50.0 °F 59% 30.12 in 2.2 mi SE 8.1 mph - N/A   Haze
2:30 PM 64 °F 52 °F 55% 30.11 in 1 mi NE 5.8 mph - -   Mist
2:30 PM 64.4 °F 51.8 °F 64% 30.12 in 2.2 mi SE 6.9 mph - N/A   Haze
3:00 PM 64.4 °F 50.0 °F 59% 30.09 in 1.9 mi SE 4.6 mph - N/A   Haze
3:30 PM 66.2 °F 51.8 °F 60% 30.09 in 1.9 mi ESE 6.9 mph - N/A   Haze
6:30 PM 57.2 °F 55.4 °F 94% 30.09 in 1.6 mi ENE 8.1 mph - N/A   Light Drizzle
7:00 PM 55.4 °F 53.6 °F 94% 30.09 in 1.9 mi NNE 5.8 mph - N/A   Light Drizzle
7:30 PM 55.4 °F 53.6 °F 94% 30.12 in 1.9 mi Variable 4.6 mph - N/A   Light Drizzle
8:00 PM 55.4 °F 53.6 °F 94% 30.12 in 1.9 mi Calm Calm - N/A   Drizzle
8:30 PM 56 °F 54 °F 91% 30.13 in 1 mi Calm Calm - -   Mist
8:30 PM 55.4 °F 53.6 °F 94% 30.12 in 1.9 mi Calm Calm - N/A   Overcast
9:00 PM 57.2 °F 53.6 °F 88% 30.12 in 1.9 mi Calm Calm - N/A   Overcast
9:30 PM 55.4 °F 55.4 °F 100% 30.12 in 1.9 mi Calm Calm - N/A   Overcast
10:00 PM 57.2 °F 53.6 °F 88% 30.09 in 1.9 mi Calm Calm - N/A   Overcast
10:30 PM 57.2 °F 53.6 °F 88% 30.12 in 1.9 mi Calm Calm - N/A   Overcast
11:00 PM 57.2 °F 53.6 °F 88% 30.12 in 1.6 mi Calm Calm - N/A   Drizzle
11:30 PM 56 °F 55 °F 96% 30.12 in 1 mi Calm Calm - - Rain Light Drizzle